TimeCDT,TemperatureF,Dew PointF,Humidity,Sea Level PressureIn,VisibilityMPH,Wind Direction,Wind SpeedMPH,Gust SpeedMPH,PrecipitationIn,Events,Conditions,WindDirDegrees,DateUTC
12:52 AM,57.0,30.0,36,29.94,10.0,SSE,17.3,27.6,N/A,,Clear,150,2013-04-21 05:52:00
1:52 AM,55.9,33.1,42,29.94,10.0,SE,23.0,31.1,N/A,,Clear,140,2013-04-21 06:52:00
2:52 AM,55.0,37.9,53,29.93,10.0,SSE,18.4,27.6,N/A,,Clear,150,2013-04-21 07:52:00
3:52 AM,54.0,42.1,64,29.93,10.0,SSE,18.4,29.9,N/A,,Clear,160,2013-04-21 08:52:00
4:52 AM,53.1,44.1,71,29.94,10.0,SSE,25.3,33.4,N/A,,Clear,160,2013-04-21 09:52:00
5:52 AM,51.1,44.1,77,29.96,10.0,SSE,20.7,31.1,N/A,,Clear,160,2013-04-21 10:52:00
6:52 AM,51.1,45.0,80,29.97,10.0,SSE,18.4,26.5,N/A,,Clear,160,2013-04-21 11:52:00
7:52 AM,52.0,46.0,80,30.00,10.0,SSE,17.3,-,N/A,,Clear,160,2013-04-21 12:52:00
8:52 AM,55.0,46.9,74,30.02,10.0,South,18.4,28.8,N/A,,Partly Cloudy,170,2013-04-21 13:52:00
9:52 AM,59.0,48.0,67,30.06,10.0,SSE,15.0,24.2,N/A,,Partly Cloudy,160,2013-04-21 14:52:00
10:52 AM,62.1,48.0,60,30.07,10.0,SSE,13.8,-,N/A,,Partly Cloudy,150,2013-04-21 15:52:00
11:52 AM,63.0,48.9,60,30.08,10.0,South,13.8,-,N/A,,Mostly Cloudy,170,2013-04-21 16:52:00
12:52 PM,66.0,48.9,54,30.05,10.0,SSE,16.1,19.6,N/A,,Scattered Clouds,160,2013-04-21 17:52:00
1:52 PM,69.1,50.0,51,30.01,10.0,SSE,16.1,20.7,N/A,,Partly Cloudy,160,2013-04-21 18:52:00
2:52 PM,72.0,48.9,44,29.99,10.0,SSW,12.7,21.9,N/A,,Clear,210,2013-04-21 19:52:00
3:52 PM,75.0,48.9,40,29.96,10.0,SSE,16.1,23.0,N/A,,Clear,160,2013-04-21 20:52:00
4:52 PM,75.9,48.9,38,29.94,10.0,SE,11.5,-,N/A,,Clear,140,2013-04-21 21:52:00
5:00 PM,77.0,46.4,34,29.99,10.0,South,6.9,-,N/A,,Partly Cloudy,190,2013-04-21 22:00:00
5:52 PM,77.0,48.0,36,29.94,10.0,SE,13.8,20.7,N/A,,Clear,140,2013-04-21 22:52:00
6:52 PM,75.0,48.9,40,29.94,10.0,ESE,15.0,23.0,N/A,,Clear,120,2013-04-21 23:52:00
7:52 PM,71.1,50.0,47,29.94,10.0,SE,18.4,26.5,N/A,,Clear,130,2013-04-22 00:52:00
8:52 PM,68.0,50.0,52,29.96,10.0,ESE,15.0,-,N/A,,Clear,120,2013-04-22 01:52:00
9:52 PM,66.0,48.9,54,29.98,10.0,ESE,16.1,-,N/A,,Clear,120,2013-04-22 02:52:00
10:52 PM,63.0,50.0,63,29.99,10.0,SE,17.3,-,N/A,,Clear,130,2013-04-22 03:52:00
11:52 PM,61.0,51.1,70,30.00,10.0,SE,17.3,-,N/A,,Clear,130,2013-04-22 04:52:00